Starlink 30320

operational
NORAD ID: 57678 Int'l Des: 2023-124 Owner: SPXS Country: US Constellation: starlink
LEOCIRCULAR

Über Starlink 30320

Beschreibung wird geladen...

Live-Position

3D-Globus wird geladen...

Nächste Überflüge

Höhenverlauf

Altitude vs Time

uPlot chart will show altitude changes over time

Zweizeiliger Elementsatz

1 57678U 23124R 25260.05287609 -.00000725 00000-0 -12364-4 0 9993
2 57678 53.1639 280.5791 0001323 101.7752 258.3397 15.30184800117169
Epoch: 17. Sept. 2025 • Age: 25 hours

Aktueller Status

Höhe 479.0 km
Geschwindigkeit 7.63 km/s
Subsatellitenpunkt 43.36°N, 75.98°W
Startdatum 22. Aug. 2023
Alter 2 years
Typ internet

Technische Details

Klassifizierung Payload
Masse 730.00 kg
Trockenmasse 700.00 kg
Gesamtmasse 730.00 kg
Länge 0.30 m
Durchmesser 4.10 m
Spannweite 29.00 m
Form Box + pan
Hersteller SPXS
Bus-Typ Starlink V2M
Phasenstatus In Orbit
Besitzer/Staat SPXS/US

Große Konstellationen

Loading constellations...